Weather History for Sioux Falls, SD

Change the Weather History Date:

Monday, October 24, 2011

  Actual Average Record
Temperature  
Mean Temperature 52 °F 45 °F  
Max Temperature 69 °F 56 °F 81 °F (1989)
Min Temperature 34 °F 33 °F 17 °F (1955)
Degree Days  
Heating Degree Days 13 21  
Month to date heating degree days 233 380  
Since 1 July heating degree days 432 584  
Cooling Degree Days 0 0  
Month to date cooling degree days 37 0  
Year to date cooling degree days 807 685  
Growing Degree Days 2 (Base 50)    
Moisture  
Dew Point 34 °F    
Average Humidity 62    
Maximum Humidity 100    
Minimum Humidity 23    
Precipitation  
Precipitation 0.00 in 0.05 in 0.88 in (1973)
Month to date precipitation 0.63 1.81  
Year to date precipitation 23.62 23.97  
Snow  
Snow 0.00 in 0.10 in 0.80 in (1981)
Month to date snowfall 0.0 0.7  
Since 1 July snowfall 0.0 0.7  
Since 1 September snowfall 0.0 0.7  
Snow Depth 0.00 in    
Sea Level Pressure  
Sea Level Pressure 29.98 in    
Wind  
Wind Speed 5 mph (East)    
Max Wind Speed 16 mph    
Max Gust Speed 22 mph    
Visibility 10 miles    
Events      
T = Trace of Precipitation, MM = Missing Value Source: NWS Daily Summary

Daily Weather History Graph

Daily Weather History Graph

Search for Another Location

Airport:

Trip Planner

Search our weather history database for the weather conditions in past years. The results will help you decide how hot, cold, wet, or windy it might be!

Date:

Astronomy

Oct. 24, 2011 Rise Set
Actual Time 7:52 AM CDT 6:29 PM CDT
Civil Twilight 7:22 AM CDT 6:58 PM CDT
Nautical Twilight 6:49 AM CDT 7:32 PM CDT
Astronomical Twilight 6:16 AM CDT 8:05 PM CDT
Moon 5:08 AM CDT (10/24) 4:57 PM CDT (10/24)
Length of Visible Light 11h 36m
Length of Day
10h 37m
Waning Crescent, 7% of the Moon is Illuminated
Oct 24
Waning Crescent
Oct 26
New
Nov 2
First Quarter
Nov 10
Full
Nov 18
Last Quarter

Hourly Weather History & Observations

Time (CDT) Temp. Windchill Dew Point Humidity Pressure Visibility Wind Dir Wind Speed Gust Speed Precip Events Conditions
12:56 AM 37.9 °F - 34.0 °F 86% 30.01 in 10.0 mi Calm Calm - N/A   Partly Cloudy
1:56 AM 36.0 °F - 33.1 °F 89% 30.02 in 10.0 mi Calm Calm - N/A   Partly Cloudy
2:56 AM 36.0 °F - 33.1 °F 89% 30.02 in 10.0 mi Calm Calm - N/A   Clear
3:56 AM 36.0 °F - 33.1 °F 89% 30.01 in 10.0 mi Calm Calm - N/A   Clear
4:56 AM 36.0 °F - 33.1 °F 89% 30.02 in 10.0 mi Calm Calm - N/A   Clear
5:56 AM 34.0 °F 31.0 °F 34.0 °F 100% 30.04 in 10.0 mi SW 3.5 mph - N/A   Clear
6:56 AM 37.9 °F - 35.1 °F 89% 30.05 in 10.0 mi Calm Calm - N/A   Clear
7:56 AM 43.0 °F 41.3 °F 37.0 °F 80% 30.06 in 10.0 mi West 3.5 mph - N/A   Mostly Cloudy
8:56 AM 46.4 °F - 39.2 °F 76% 30.04 in 10.0 mi Calm Calm - N/A   Mostly Cloudy
9:56 AM 53.1 °F - 37.9 °F 57% 30.06 in 10.0 mi WNW 4.6 mph - N/A   Clear
10:56 AM 60.1 °F - 37.9 °F 44% 30.06 in 10.0 mi NNW 3.5 mph - N/A   Clear
11:56 AM 63.0 °F - 37.0 °F 38% 30.06 in 10.0 mi Calm Calm - N/A   Clear
12:56 PM 64.0 °F - 33.1 °F 31% 30.04 in 10.0 mi Calm Calm - N/A   Clear
1:56 PM 66.0 °F - 32.0 °F 28% 30.01 in 10.0 mi SSE 3.5 mph - N/A   Clear
2:56 PM 69.8 °F - 30.2 °F 23% 29.95 in 10.0 mi Variable 3.5 mph - N/A   Clear
3:56 PM 66.0 °F - 34.0 °F 30% 29.94 in 10.0 mi ESE 8.1 mph - N/A   Clear
4:56 PM 64.0 °F - 33.1 °F 31% 29.93 in 10.0 mi East 8.1 mph - N/A   Clear
5:56 PM 60.8 °F - 33.8 °F 36% 29.89 in 10.0 mi East 8.1 mph - N/A   Clear
6:56 PM 57.9 °F - 32.0 °F 37% 29.91 in 10.0 mi East 9.2 mph - N/A   Clear
7:56 PM 54.0 °F - 32.0 °F 43% 29.89 in 10.0 mi East 6.9 mph - N/A   Clear
8:56 PM 54.0 °F - 33.1 °F 45% 29.89 in 10.0 mi ENE 9.2 mph - N/A   Clear
9:56 PM 53.6 °F - 32.0 °F 44% 29.87 in 10.0 mi ENE 11.5 mph - N/A   Clear
10:56 PM 53.1 °F - 32.0 °F 45% 29.85 in 10.0 mi ENE 12.7 mph - N/A   Clear
11:56 PM 52.0 °F - 34.0 °F 50% 29.81 in 10.0 mi ENE 11.5 mph - N/A   Clear